Location: Dötzum
(52.0808°N, 9.8063°E)
Time: 04:40:59
(UTC+00:00)

Cosmos 1269 Rocket - Pass Details

Date: 27 May 2022
Orbit: 773 x 778 km, 74.1° (Epoch: 26 June)

Event Time Altitude Azimuth Distance (km) Brightness Sun altitude
Rises 00:07:20 0° 335° (NNW) 3,263 8.2 -15.9°
Reaches altitude 10° 00:09:45 10° 338° (NNW) 2,331 7.4 -15.8°
Maximum altitude 00:15:01 67° 62° (ENE) 840 4.3 -15.6°
Enters shadow 00:20:15 10° 145° (SE) 2,312 6.1 -15.4°
